EW5712 Weather Reports


time (UTC)temp
C
wind
direction
speed
KPH
gust
KPH
rain 1hr
cm
rain 24hr
cm
rain mn
cm
humidity
%
barometer
mb
20260504201658 22 184 0.0 0.0 0.00 0.00 0.00 35 1007.1
20260504200655 22 156 0.0 0.0 0.00 0.00 0.00 37 1007.1
20260504195639 21 157 0.0 0.0 0.00 0.00 0.00 38 1007.2
20260504194621 21 313 0.0 0.0 0.00 0.00 0.00 37 1007.3
20260504193617 21 223 0.0 0.0 0.00 0.00 0.00 36 1007.4
20260504191610 21 5 0.0 0.0 0.00 0.00 0.00 38 1007.7
20260504190618 21 160 0.0 0.0 0.00 0.00 0.00 37 1007.6
20260504185641 21 177 0.0 0.0 0.00 0.00 0.00 37 1007.7
20260504184632 21 136 0.0 0.0 0.00 0.00 0.00 36 1007.9
20260504183643 21 186 0.0 0.0 0.00 0.00 0.00 36 1007.8
20260504182654 21 157 0.0 0.0 0.00 0.00 0.00 37 1008.0
20260504180722 21 152 0.0 0.0 0.00 0.00 0.00 35 1008.2
20260504175658 21 327 0.0 8.0 0.00 0.00 0.00 36 1008.4
20260504173649 20 163 0.0 0.0 0.00 0.00 0.00 37 1008.5
20260504171710 20 341 0.0 0.0 0.00 0.00 0.00 38 1008.8
20260504170708 20 307 0.0 0.0 0.00 0.00 0.00 36 1008.9
20260504150545 15 173 0.0 0.0 0.00 0.00 0.00 43 1010.4
20260504130556 9 163 0.0 0.0 0.00 0.00 0.00 60 1011.1
20260504100513 5 303 0.0 0.0 0.00 0.00 0.00 70 1011.1
20260504080558 6 304 0.0 0.0 0.00 0.00 0.00 68 1011.3
20260504050422 7 304 0.0 0.0 0.00 0.00 0.00 63 1010.9
20260504045421 7 304 0.0 0.0 0.00 0.00 0.00 63 1010.7
20260504042440 8 304 0.0 0.0 0.00 0.00 0.00 60 1010.6
20260504041440 8 304 0.0 0.0 0.00 0.00 0.00 59 1010.6
20260504040501 8 304 0.0 0.0 0.00 0.00 0.00 58 1010.5
20260504035504 8 304 0.0 0.0 0.00 0.00 0.00 58 1010.6
20260504034459 8 304 0.0 0.0 0.00 0.00 0.00 58 1010.5
20260504033435 8 304 0.0 0.0 0.00 0.00 0.00 58 1010.6
20260504032423 8 304 0.0 0.0 0.00 0.00 0.00 57 1010.5
20260504030405 8 304 0.0 0.0 0.00 0.00 0.00 58 1010.5
20260504025400 8 304 0.0 0.0 0.00 0.00 0.00 58 1010.5
20260504024403 8 304 0.0 0.0 0.00 0.00 0.00 57 1010.6
20260504023359 8 304 0.0 0.0 0.00 0.00 0.00 58 1010.6
20260504022402 9 304 0.0 0.0 0.00 0.00 0.00 57 1010.5
20260504021411 9 304 0.0 0.0 0.00 0.00 0.00 58 1010.4
20260504020418 10 304 0.0 0.0 0.00 0.00 0.00 56 1010.3
20260504014354 10 304 0.0 0.0 0.00 0.00 0.00 53 1010.1
20260504012415 11 304 0.0 0.0 0.00 0.00 0.00 52 1010.0
20260504011407 11 304 0.0 0.0 0.00 0.00 0.00 50 1010.0
20260504010358 11 304 0.0 0.0 0.00 0.00 0.00 51 1009.9
20260504004338 12 304 0.0 0.0 0.00 0.00 0.00 46 1009.6
20260504003333 12 304 0.0 0.0 0.00 0.00 0.00 45 1009.6
20260504002352 12 304 0.0 0.0 0.00 0.00 0.00 44 1009.5
20260504001347 12 304 0.0 0.0 0.00 0.00 0.00 43 1009.5
20260504000342 13 304 0.0 0.0 0.00 0.00 0.00 42 1009.5
20260503235332 13 303 0.0 0.0 0.00 0.00 0.00 42 1009.4
20260503234309 13 303 0.0 0.0 0.00 0.00 0.00 40 1009.4
20260503231326 14 292 0.0 0.0 0.00 0.00 0.00 39 1009.4
20260503230310 14 290 0.0 6.4 0.00 0.00 0.00 40 1009.2
20260503225300 14 307 0.0 3.2 0.00 0.00 0.00 40 1009.2
20260503224302 14 302 0.0 0.0 0.00 0.00 0.00 40 1009.3
20260503222304 14 312 0.0 0.0 0.00 0.00 0.00 38 1009.4
20260503215312 15 309 0.0 0.0 0.00 0.00 0.00 36 1009.4
20260503214319 15 299 0.0 0.0 0.00 0.00 0.00 37 1009.3
20260503213327 15 348 0.0 0.0 0.00 0.00 0.00 35 1009.3
20260503212259 15 344 0.0 0.0 0.00 0.00 0.00 34 1009.1
20260503211249 15 329 0.0 0.0 0.00 0.00 0.00 34 1009.0
20260503210257 15 269 0.0 0.0 0.00 0.00 0.00 34 1009.1
20260503205312 15 304 0.0 0.0 0.00 0.00 0.00 33 1009.1
20260503204323 15 310 0.0 0.0 0.00 0.00 0.00 34 1009.1
20260503203318 15 305 0.0 0.0 0.00 0.00 0.00 33 1009.2
20260503202330 15 298 0.0 0.0 0.00 0.00 0.00 35 1009.3